Location: Quedlinburg
(51.7921°N, 11.1414°E)
Time: 00:40:56
(UTC+01:00)

BEESAT - Visible Passes

Search period start: 15 March 2026 00:00
Search period end: 25 March 2026 00:00
Orbit: 684 x 692 km, 98.4° (Epoch: 14 March)

Date Brightness Start Highest point End Pass type
(mag) Time Alt. Az. Time Alt. Az. Time Alt. Az.
15 Mar ? 01:03:16 10° N 01:03:56 13° N 01:03:56 13° N visible
16 Mar ? 00:03:43 10° NNE 00:04:13 13° NNE 00:04:13 13° NNE visible
16 Mar ? 01:42:22 10° NNW 01:42:48 12° NNW 01:42:48 12° NNW visible
17 Mar ? 00:42:12 10° N 00:43:05 15° N 00:43:05 15° N visible
17 Mar ? 23:42:56 10° NNE 23:43:22 13° NNE 23:43:22 13° NNE visible
18 Mar ? 01:21:01 10° N 01:21:57 14° NNW 01:21:57 14° NNW visible
19 Mar ? 00:21:14 10° N 00:22:14 16° N 00:22:14 16° N visible
19 Mar ? 02:00:33 10° NNW 02:00:49 11° NNW 02:00:49 11° NNW visible
19 Mar ? 23:22:14 10° NNE 23:22:30 11° NNE 23:22:30 11° NNE visible
20 Mar ? 00:59:51 10° N 01:01:06 17° N 01:01:06 17° N visible
21 Mar ? 00:00:21 10° NNE 00:01:22 16° NNE 00:01:22 16° NNE visible
21 Mar ? 01:38:52 10° NNW 01:39:57 14° NNW 01:39:57 14° NNW visible
22 Mar ? 00:38:48 10° N 00:40:13 19° N 00:40:13 19° N visible
22 Mar ? 23:39:33 10° NNE 23:40:29 16° NNE 23:40:29 16° NNE visible
23 Mar ? 01:17:33 10° N 01:19:05 17° NNW 01:19:05 17° NNW visible
24 Mar ? 00:17:49 10° N 00:19:20 21° N 00:19:20 21° N visible
24 Mar ? 01:56:56 10° NNW 01:57:56 12° NW 01:57:56 12° NW visible
24 Mar ? 23:18:52 10° NNE 23:19:36 14° NE 23:19:36 14° NE visible
